Regional Weather Roundup
Issued by NWS

Home | Current Version | Previous Version | Graphics & Text | Print | Product List | Glossary On
Versions: 1 2 3 4 5 6 7 8 9 10 11 12 13 14 15 16 17 18 19 20 21 22 23 24 25 26 27 28 29 30 31 32 33 34 35 36 37 38 39 40 41 42 43 44 45 46 47 48 49 50
000
ASUS45 KTFX 261710
RWRMT
MONTANA REGIONAL WEATHER ROUNDUP
NATIONAL WEATHER SERVICE GREAT FALLS MT
1100 AM MDT FRI AUG 26 2016

NOTE: "FAIR" INDICATES FEW OR NO CLOUDS BELOW 12000 FEET WITH NO
SIGNIFICANT WEATHER AND/OR OBSTRUCTIONS TO VISIBILITY.

MTZ001>007-043-261800-
WEST OF THE DIVIDE

CITY           SKY/WX    TMP DP  RH WIND       PRES   REMARKS
KALISPELL      PTSUNNY   63  43  48 E7        30.08F
MISSOULA       MOSUNNY   63  38  39 W5        30.10F
BUTTE          CLOUDY    58  33  39 NE3       30.15F
MULLAN PASS    SUNNY     56  37  49 VRB3      30.16S
DEER LODGE       N/A     59  37  44 CALM      30.16F
EUREKA           N/A     61  45  55 W5        30.10F
HAMILTON         N/A     63  36  36 CALM      30.10F
LIBBY            N/A     64  45  48 CALM      30.07F
RONAN            N/A     66  45  46 SE1       30.13S
$$

MTZ008-052>055-261800-
SOUTHWEST MONTANA

CITY           SKY/WX    TMP DP  RH WIND       PRES   REMARKS
BOZEMAN        SUNNY     60  39  45 N3        30.14F
DILLON         MOSUNNY   57  35  43 VRB5      30.14F
W YELLOWSTONE  CLOUDY    55  36  47 N7        30.19S
ENNIS          MOSUNNY   57  34  41 VRB5      30.19F
THREE FORKS      N/A     61  22  22 CALM      30.11F
TWIN BRIDGES     N/A     62  32  32 N3        30.11F
$$

MTZ009-010-012-014-046-048-049-054-261800-
EAST SLOPES AND CENTRAL MONTANA

CITY           SKY/WX    TMP DP  RH WIND       PRES   REMARKS
CUT BANK       SUNNY     59  44  57 SW3       30.11F
GREAT FALLS    CLOUDY    58  43  57 SW6       30.13F
MALMSTROM AFB  MOSUNNY   58  45  60 W2        30.13F
HELENA         SUNNY     64  43  46 VRB5      30.11F
CHOTEAU          N/A     59  43  55 CALM      30.14F
CONRAD           N/A     61  49  64 W2        30.13F
$$

MTZ011-013-016-021-045-047-050-051-261800-
NORTH CENTRAL MONTANA

CITY           SKY/WX    TMP DP  RH WIND       PRES   REMARKS
HAVRE          CLOUDY    61  48  62 VRB6      30.09F
LEWISTOWN      CLOUDY    58  44  60 NW5       30.13F
N BAR RANCH      N/A     61  43  51 N13       30.14F
CHINOOK          N/A     63  50  63 W15       30.07F
$$

MTZ017>020-022>027-061-062-261800-
NORTHEAST MONTANA

CITY           SKY/WX    TMP DP  RH WIND       PRES   REMARKS
GLASGOW        MOSUNNY   64  49  57 W10G18    30.04F
JORDAN           N/A     63  46  54 N9        30.08R
SIDNEY         CLOUDY    69  48  47 SE7       30.03F
WOLF POINT     CLOUDY    70  48  45 SW9       30.04F
POPLAR           N/A     66  46  48 W5        30.04F
$$

MTZ028>42-056>058-261800-
SOUTHCENTRAL AND SOUTHEAST MONTANA

CITY           SKY/WX    TMP DP  RH WIND       PRES   REMARKS
BAKER          CLOUDY    62  46  55 SW10      30.09S
BILLINGS       MOSUNNY   62  42  47 S6        30.11S
LIVINGSTON     SUNNY     61  37  41 CALM      30.12F
MILES CITY     MOSUNNY   70  39  32 W6        30.05F
EKALAKA          N/A     55  47  74 SW5       30.10
FORSYTH          N/A     66  43  42 SW7       30.06F
LAUREL           N/A     63  41  44 NE2       30.09F
ROUNDUP          N/A     67  41  38 NW8       30.01F
$$

REGIONAL REPORTS...DAKOTAS

CITY           SKY/WX    TMP DP  RH WIND       PRES   REMARKS
WILLISTON      CLOUDY    69  45  41 S6        30.03F
MINOT          MOSUNNY   72  45  37 SW14      30.03S
DICKINSON      SUNNY     70  42  36 S13       30.05F
CROSBY           N/A     61  45  55 SW10      30.04F
WATFORD CITY     N/A     73  39  29 SW12G17   30.04F
BISMARCK       CLOUDY    63  50  62 SW7       30.11F
GRAND FORKS    PTSUNNY   73  54  51 S10       30.05F
FARGO          SUNNY     74  50  42 SW10      30.10F
BUFFALO SD       N/A     73  46  38 SE12G20   30.01F
RAPID CITY     CLOUDY    56  52  86 SE3       30.13F
$$

REGIONAL REPORTS...WYOMING/IDAHO/WASHINGTON

CITY           SKY/WX    TMP DP  RH WIND       PRES   REMARKS
GILLETTE       SUNNY     64  48  56 VRB7      30.11F
SHERIDAN       MOSUNNY   65  43  44 CALM      30.11S
BUFFALO WY     MOSUNNY   67  38  34 NW12      30.14F
CODY           PTSUNNY   55  45  67 N10       30.15S
YELLOWSTONE LA   N/A     53  37  54 VRB5      30.25F
IDAHO FALLS    CLOUDY    65  36  34 S5        30.08S
SALMON         MOSUNNY   61  36  39 NW3       30.09F
BOISE          MOSUNNY   72  34  24 SE6       30.01R
SPOKANE        SUNNY     70  43  37 NE9       30.01F
$$

REGIONAL REPORTS...ALBERTA

CITY           SKY/WX    TMP DP  RH WIND       PRES   REMARKS
EDMONTON       SUNNY     61  54  77 S6        29.97F
CALGARY        PTSUNNY   61  45  55 S6        30.05F
LETHBRIDGE     MOSUNNY   63  48  59 SW8       30.07F
MEDICINE HAT   PTSUNNY   61  54  77 SW8       30.06F
WATERTON GATE    N/A     59  45  58 SW10        N/A
CARDSTON         N/A     63  46  55 NW1         N/A
MILK RIVER       N/A     63  46  55 W6          N/A
ONEFOUR          N/A     59  48  67 NW14        N/A
$$

REGIONAL REPORTS...SASKATCHEWAN

CITY           SKY/WX    TMP DP  RH WIND       PRES   REMARKS
SWIFT CURRENT  CLOUDY    55  54  94 NW13      30.00S
REGINA         PTSUNNY   64  54  68 W10       29.97F
SASKATOON      CLOUDY    59  57  94 NW10      29.95S
VAL MARIE        N/A     61  46  59 NW17        N/A
ROCKGLEN         N/A     59  50  72 W9          N/A
ASSINIBOIA       N/A     64  54  68 SE3         N/A
$$



USA.gov is the U.S. government's official web portal to all federal, state and local government web resources and services.